Time,TemperatureF,DewpointF,PressureIn,WindDirection,WindDirectionDegrees,WindSpeedMPH,WindSpeedGustMPH,Humidity,HourlyPrecipIn,Conditions,Clouds,dailyrainin,SoftwareType,DateUTC
2013-10-07 00:02:00,45.7,35.8,29.99,North,0,1.0,3.0,68,0.00,,,0.00,meteohub,2013-10-07 07:02:00,
2013-10-07 00:07:00,45.7,35.8,30.00,South,180,1.0,2.0,68,0.00,,,0.00,meteohub,2013-10-07 07:07:00,
2013-10-07 00:12:00,45.5,35.6,29.99,East,90,0.0,2.0,68,0.00,,,0.00,meteohub,2013-10-07 07:12:00,
2013-10-07 00:17:00,45.5,35.6,30.00,East,90,1.0,2.0,68,0.00,,,0.00,meteohub,2013-10-07 07:17:00,
2013-10-07 00:22:00,45.5,35.6,29.99,SE,135,0.0,2.0,68,0.00,,,0.00,meteohub,2013-10-07 07:22:00,
2013-10-07 00:27:00,45.3,35.4,29.99,SE,135,0.0,2.0,68,0.00,,,0.00,meteohub,2013-10-07 07:27:00,
2013-10-07 00:32:00,45.1,35.2,30.00,North,0,1.0,2.0,68,0.00,,,0.00,meteohub,2013-10-07 07:32:00,
2013-10-07 00:37:00,45.0,35.1,29.99,North,0,0.0,1.0,68,0.00,,,0.00,meteohub,2013-10-07 07:37:00,
2013-10-07 00:42:00,44.8,35.2,29.99,SE,135,1.0,1.0,69,0.00,,,0.00,meteohub,2013-10-07 07:42:00,
2013-10-07 00:47:00,44.8,35.2,29.99,SE,135,1.0,2.0,69,0.00,,,0.00,meteohub,2013-10-07 07:47:00,
2013-10-07 00:52:00,44.8,35.2,29.99,SE,135,1.0,2.0,69,0.00,,,0.00,meteohub,2013-10-07 07:52:00,
2013-10-07 00:57:00,44.8,35.2,29.99,SE,135,0.0,2.0,69,0.00,,,0.00,meteohub,2013-10-07 07:57:00,
2013-10-07 01:02:00,44.8,35.2,29.99,North,0,2.0,2.0,69,0.00,,,0.00,meteohub,2013-10-07 08:02:00,
2013-10-07 01:07:00,44.8,35.2,29.99,NE,45,2.0,2.0,69,0.00,,,0.00,meteohub,2013-10-07 08:07:00,
2013-10-07 01:12:00,44.6,35.1,29.99,North,0,2.0,2.0,69,0.00,,,0.00,meteohub,2013-10-07 08:12:00,
2013-10-07 01:17:00,44.6,35.1,29.99,North,0,2.0,2.0,69,0.00,,,0.00,meteohub,2013-10-07 08:17:00,
2013-10-07 01:22:00,44.8,34.9,29.98,NE,45,0.0,2.0,68,0.00,,,0.00,meteohub,2013-10-07 08:22:00,
2013-10-07 01:27:00,44.6,34.7,29.99,SE,135,2.0,2.0,68,0.00,,,0.00,meteohub,2013-10-07 08:27:00,
2013-10-07 01:32:00,45.9,35.6,29.98,SE,135,2.0,4.0,67,0.00,,,0.00,meteohub,2013-10-07 08:32:00,
2013-10-07 01:37:00,46.8,35.2,29.98,SE,135,2.0,4.0,64,0.00,,,0.00,meteohub,2013-10-07 08:37:00,
2013-10-07 01:42:00,48.2,35.4,29.97,North,0,2.0,4.0,61,0.00,,,0.00,meteohub,2013-10-07 08:42:00,
2013-10-07 01:47:00,48.7,34.7,29.98,North,0,2.0,4.0,58,0.00,,,0.00,meteohub,2013-10-07 08:47:00,
2013-10-07 01:52:00,48.0,34.3,29.98,NE,45,2.0,3.0,59,0.00,,,0.00,meteohub,2013-10-07 08:52:00,
2013-10-07 01:57:00,47.5,33.4,29.97,SW,225,2.0,3.0,58,0.00,,,0.00,meteohub,2013-10-07 08:57:00,
2013-10-07 02:02:00,47.1,33.1,29.97,NW,315,2.0,4.0,58,0.00,,,0.00,meteohub,2013-10-07 09:02:00,
2013-10-07 02:07:00,48.2,32.7,29.97,SW,225,3.0,4.0,55,0.00,,,0.00,meteohub,2013-10-07 09:07:00,
2013-10-07 02:12:00,49.1,32.7,29.97,East,90,7.0,7.0,53,0.00,,,0.00,meteohub,2013-10-07 09:12:00,
2013-10-07 02:17:00,50.2,32.7,29.97,ESE,113,2.0,7.0,51,0.00,,,0.00,meteohub,2013-10-07 09:17:00,
2013-10-07 02:22:00,51.4,33.4,29.97,West,270,2.0,7.0,50,0.00,,,0.00,meteohub,2013-10-07 09:22:00,
2013-10-07 02:27:00,51.8,32.2,29.97,SE,135,4.0,7.0,47,0.00,,,0.00,meteohub,2013-10-07 09:27:00,
2013-10-07 02:32:00,52.2,32.0,29.97,East,90,2.0,6.0,46,0.00,,,0.00,meteohub,2013-10-07 09:32:00,
2013-10-07 02:37:00,52.2,32.0,29.97,East,90,2.0,6.0,46,0.00,,,0.00,meteohub,2013-10-07 09:37:00,
2013-10-07 02:42:00,51.8,32.2,29.97,NE,45,4.0,5.0,47,0.00,,,0.00,meteohub,2013-10-07 09:42:00,
2013-10-07 02:47:00,51.3,33.3,29.97,NE,45,2.0,4.0,50,0.00,,,0.00,meteohub,2013-10-07 09:47:00,
2013-10-07 02:52:00,50.2,32.7,29.96,SW,225,3.0,4.0,51,0.00,,,0.00,meteohub,2013-10-07 09:52:00,
2013-10-07 02:57:00,49.8,32.9,29.96,NE,45,2.0,5.0,52,0.00,,,0.00,meteohub,2013-10-07 09:57:00,
2013-10-07 03:02:00,49.6,33.3,29.96,NE,45,2.0,5.0,53,0.00,,,0.00,meteohub,2013-10-07 10:02:00,
2013-10-07 03:07:00,49.5,33.1,29.96,NE,45,2.0,5.0,53,0.00,,,0.00,meteohub,2013-10-07 10:07:00,
2013-10-07 03:12:00,49.5,33.1,29.96,SW,225,5.0,5.0,53,0.00,,,0.00,meteohub,2013-10-07 10:12:00,
2013-10-07 03:17:00,50.2,32.2,29.96,East,90,2.0,5.0,50,0.00,,,0.00,meteohub,2013-10-07 10:17:00,
2013-10-07 03:22:00,50.9,31.8,29.96,South,180,3.0,5.0,48,0.00,,,0.00,meteohub,2013-10-07 10:22:00,
2013-10-07 03:27:00,51.8,30.0,29.95,South,180,8.0,8.0,43,0.00,,,0.00,meteohub,2013-10-07 10:27:00,
2013-10-07 03:32:00,52.5,29.5,29.95,East,90,6.0,8.0,41,0.00,,,0.00,meteohub,2013-10-07 10:32:00,
2013-10-07 03:37:00,53.2,28.9,29.95,East,90,3.0,8.0,39,0.00,,,0.00,meteohub,2013-10-07 10:37:00,
2013-10-07 03:42:00,53.6,28.0,29.95,SE,135,4.0,8.0,37,0.00,,,0.00,meteohub,2013-10-07 10:42:00,
2013-10-07 03:47:00,53.6,27.3,29.95,NE,45,2.0,8.0,36,0.00,,,0.00,meteohub,2013-10-07 10:47:00,
2013-10-07 03:52:00,53.1,28.8,29.95,NE,45,2.0,8.0,39,0.00,,,0.00,meteohub,2013-10-07 10:52:00,
2013-10-07 03:57:00,51.3,29.5,29.95,NW,315,1.0,8.0,43,0.00,,,0.00,meteohub,2013-10-07 10:57:00,
2013-10-07 04:02:00,50.2,29.7,29.95,NW,315,2.0,4.0,45,0.00,,,0.00,meteohub,2013-10-07 11:02:00,
2013-10-07 04:07:00,49.8,30.9,29.95,NW,315,0.0,4.0,48,0.00,,,0.00,meteohub,2013-10-07 11:07:00,
2013-10-07 04:12:00,49.5,30.6,29.95,North,0,2.0,4.0,48,0.00,,,0.00,meteohub,2013-10-07 11:12:00,
2013-10-07 04:17:00,48.9,31.1,29.95,South,180,1.0,2.0,50,0.00,,,0.00,meteohub,2013-10-07 11:17:00,
2013-10-07 04:22:00,48.4,31.1,29.95,North,0,1.0,2.0,51,0.00,,,0.00,meteohub,2013-10-07 11:22:00,
2013-10-07 04:27:00,47.8,31.1,29.95,NW,315,1.0,2.0,52,0.00,,,0.00,meteohub,2013-10-07 11:27:00,
2013-10-07 04:32:00,47.8,31.1,29.95,North,0,2.0,2.0,52,0.00,,,0.00,meteohub,2013-10-07 11:32:00,
2013-10-07 04:37:00,47.7,31.3,29.94,East,90,2.0,2.0,53,0.00,,,0.00,meteohub,2013-10-07 11:37:00,
2013-10-07 04:42:00,47.8,31.1,29.95,NE,45,1.0,4.0,52,0.00,,,0.00,meteohub,2013-10-07 11:42:00,
2013-10-07 04:47:00,48.2,30.4,29.95,SW,225,1.0,4.0,50,0.00,,,0.00,meteohub,2013-10-07 11:47:00,
2013-10-07 04:52:00,48.2,30.4,29.95,East,90,2.0,3.0,50,0.00,,,0.00,meteohub,2013-10-07 11:52:00,
2013-10-07 04:57:00,48.2,30.9,29.94,SW,225,2.0,2.0,51,0.00,,,0.00,meteohub,2013-10-07 11:57:00,
2013-10-07 05:02:00,47.8,31.1,29.95,South,180,1.0,2.0,52,0.00,,,0.00,meteohub,2013-10-07 12:02:00,
2013-10-07 05:07:00,47.8,31.1,29.94,SW,225,2.0,2.0,52,0.00,,,0.00,meteohub,2013-10-07 12:07:00,
2013-10-07 05:12:00,48.0,31.3,29.95,NE,45,1.0,3.0,52,0.00,,,0.00,meteohub,2013-10-07 12:12:00,
2013-10-07 05:17:00,48.2,30.9,29.94,South,180,1.0,3.0,51,0.00,,,0.00,meteohub,2013-10-07 12:17:00,
2013-10-07 05:22:00,48.4,31.1,29.94,SW,225,2.0,3.0,51,0.00,,,0.00,meteohub,2013-10-07 12:22:00,
2013-10-07 05:27:00,48.6,31.3,29.94,SW,225,2.0,4.0,51,0.00,,,0.00,meteohub,2013-10-07 12:27:00,
2013-10-07 05:32:00,49.5,29.5,29.94,East,90,2.0,6.0,46,0.00,,,0.00,meteohub,2013-10-07 12:32:00,
2013-10-07 05:37:00,49.6,32.7,29.94,WNW,293,6.0,6.0,52,0.00,,,0.00,meteohub,2013-10-07 12:37:00,
2013-10-07 05:42:00,48.4,35.1,29.94,SW,225,4.0,6.0,60,0.00,,,0.00,meteohub,2013-10-07 12:42:00,
2013-10-07 05:47:00,47.7,35.2,29.94,South,180,3.0,6.0,62,0.00,,,0.00,meteohub,2013-10-07 12:47:00,
2013-10-07 05:52:00,47.1,35.6,29.94,South,180,3.0,7.0,64,0.00,,,0.00,meteohub,2013-10-07 12:52:00,
2013-10-07 05:57:00,46.4,36.9,29.94,SW,225,4.0,7.0,69,0.00,,,0.00,meteohub,2013-10-07 12:57:00,
2013-10-07 06:02:00,45.7,36.5,29.94,East,90,4.0,4.0,70,0.00,,,0.00,meteohub,2013-10-07 13:02:00,
2013-10-07 06:07:00,45.9,34.3,29.94,NW,315,2.0,4.0,64,0.00,,,0.00,meteohub,2013-10-07 13:07:00,
2013-10-07 06:12:00,46.8,34.0,29.94,SW,225,1.0,4.0,61,0.00,,,0.00,meteohub,2013-10-07 13:12:00,
2013-10-07 06:17:00,47.7,31.8,29.94,North,0,4.0,4.0,54,0.00,,,0.00,meteohub,2013-10-07 13:17:00,
2013-10-07 06:22:00,48.9,30.6,29.94,North,0,2.0,4.0,49,0.00,,,0.00,meteohub,2013-10-07 13:22:00,
2013-10-07 06:27:00,49.1,29.7,29.94,South,180,5.0,5.0,47,0.00,,,0.00,meteohub,2013-10-07 13:27:00,
2013-10-07 06:32:00,49.8,29.3,29.94,East,90,3.0,7.0,45,0.00,,,0.00,meteohub,2013-10-07 13:32:00,
2013-10-07 06:37:00,50.7,27.9,29.94,SE,135,2.0,7.0,41,0.00,,,0.00,meteohub,2013-10-07 13:37:00,
2013-10-07 06:42:00,51.3,27.1,29.94,SE,135,4.0,7.0,39,0.00,,,0.00,meteohub,2013-10-07 13:42:00,
2013-10-07 06:47:00,51.6,26.2,29.94,South,180,3.0,4.0,37,0.00,,,0.00,meteohub,2013-10-07 13:47:00,
2013-10-07 06:52:00,51.6,25.5,29.94,East,90,6.0,6.0,36,0.00,,,0.00,meteohub,2013-10-07 13:52:00,
2013-10-07 06:57:00,52.0,23.7,29.94,SW,225,5.0,6.0,33,0.00,,,0.00,meteohub,2013-10-07 13:57:00,
2013-10-07 07:02:00,52.2,23.2,29.94,North,0,2.0,6.0,32,0.00,,,0.00,meteohub,2013-10-07 14:02:00,
2013-10-07 07:07:00,51.6,24.1,29.94,SW,225,3.0,7.0,34,0.00,,,0.00,meteohub,2013-10-07 14:07:00,
2013-10-07 07:12:00,51.3,24.6,29.94,SW,225,3.0,7.0,35,0.00,,,0.00,meteohub,2013-10-07 14:12:00,
2013-10-07 07:17:00,51.3,24.6,29.94,SW,225,6.0,6.0,35,0.00,,,0.00,meteohub,2013-10-07 14:17:00,
2013-10-07 07:22:00,51.4,25.3,29.95,NW,315,2.0,8.0,36,0.00,,,0.00,meteohub,2013-10-07 14:22:00,
2013-10-07 07:27:00,50.7,27.3,29.95,SW,225,2.0,8.0,40,0.00,,,0.00,meteohub,2013-10-07 14:27:00,
2013-10-07 07:32:00,49.5,27.3,29.95,SW,225,2.0,8.0,42,0.00,,,0.00,meteohub,2013-10-07 14:32:00,
2013-10-07 07:37:00,48.6,27.7,29.95,NW,315,0.0,3.0,44,0.00,,,0.00,meteohub,2013-10-07 14:37:00,
2013-10-07 07:42:00,47.7,27.9,29.96,NW,315,0.0,2.0,46,0.00,,,0.00,meteohub,2013-10-07 14:42:00,
2013-10-07 07:47:00,47.1,27.9,29.95,NW,315,0.0,2.0,47,0.00,,,0.00,meteohub,2013-10-07 14:47:00,
2013-10-07 07:52:00,46.6,28.4,29.96,NW,315,2.0,2.0,49,0.00,,,0.00,meteohub,2013-10-07 14:52:00,
2013-10-07 07:57:00,46.6,28.9,29.96,NE,45,2.0,3.0,50,0.00,,,0.00,meteohub,2013-10-07 14:57:00,
2013-10-07 08:02:00,46.4,29.7,29.96,NE,45,1.0,3.0,52,0.00,,,0.00,meteohub,2013-10-07 15:02:00,
2013-10-07 08:07:00,46.2,29.1,29.96,NE,45,1.0,3.0,51,0.00,,,0.00,meteohub,2013-10-07 15:07:00,
2013-10-07 08:12:00,46.2,29.1,29.96,NW,315,2.0,2.0,51,0.00,,,0.00,meteohub,2013-10-07 15:12:00,
2013-10-07 08:17:00,46.8,30.9,29.96,East,90,1.0,2.0,54,0.00,,,0.00,meteohub,2013-10-07 15:17:00,
2013-10-07 08:22:00,47.5,31.6,29.95,East,90,2.0,2.0,54,0.00,,,0.00,meteohub,2013-10-07 15:22:00,
2013-10-07 08:27:00,48.9,32.5,29.96,NNE,23,2.0,2.0,53,0.00,,,0.00,meteohub,2013-10-07 15:27:00,
2013-10-07 08:32:00,50.4,33.4,29.96,East,90,2.0,2.0,52,0.00,,,0.00,meteohub,2013-10-07 15:32:00,
2013-10-07 08:37:00,51.6,34.5,29.96,NE,45,4.0,4.0,52,0.00,,,0.00,meteohub,2013-10-07 15:37:00,
2013-10-07 08:42:00,52.3,34.2,29.96,NE,45,4.0,4.0,50,0.00,,,0.00,meteohub,2013-10-07 15:42:00,
2013-10-07 08:47:00,52.7,34.5,29.96,NE,45,5.0,5.0,50,0.00,,,0.00,meteohub,2013-10-07 15:47:00,
2013-10-07 08:52:00,52.7,34.5,29.97,North,0,4.0,6.0,50,0.00,,,0.00,meteohub,2013-10-07 15:52:00,
2013-10-07 08:57:00,52.7,35.1,29.97,North,0,3.0,6.0,51,0.00,,,0.00,meteohub,2013-10-07 15:57:00,
2013-10-07 09:02:00,52.5,34.9,29.97,NE,45,3.0,6.0,51,0.00,,,0.00,meteohub,2013-10-07 16:02:00,
2013-10-07 09:07:00,52.5,34.9,29.97,NE,45,2.0,4.0,51,0.00,,,0.00,meteohub,2013-10-07 16:07:00,
2013-10-07 09:12:00,52.7,35.1,29.97,NE,45,3.0,4.0,51,0.00,,,0.00,meteohub,2013-10-07 16:12:00,
2013-10-07 09:17:00,53.1,35.4,29.97,East,90,3.0,4.0,51,0.00,,,0.00,meteohub,2013-10-07 16:17:00,
2013-10-07 09:22:00,53.8,35.6,29.97,NE,45,3.0,4.0,50,0.00,,,0.00,meteohub,2013-10-07 16:22:00,
2013-10-07 09:27:00,54.3,35.6,29.98,NE,45,3.0,4.0,49,0.00,,,0.00,meteohub,2013-10-07 16:27:00,
2013-10-07 09:32:00,55.0,36.7,29.98,NE,45,2.0,4.0,50,0.00,,,0.00,meteohub,2013-10-07 16:32:00,
2013-10-07 09:37:00,55.2,36.0,29.98,North,0,2.0,4.0,48,0.00,,,0.00,meteohub,2013-10-07 16:37:00,
2013-10-07 09:42:00,55.2,36.0,29.98,East,90,2.0,4.0,48,0.00,,,0.00,meteohub,2013-10-07 16:42:00,
2013-10-07 09:47:00,55.2,36.0,29.99,NE,45,4.0,4.0,48,0.00,,,0.00,meteohub,2013-10-07 16:47:00,
2013-10-07 09:52:00,55.0,34.7,29.99,North,0,3.0,4.0,46,0.00,,,0.00,meteohub,2013-10-07 16:52:00,
2013-10-07 09:57:00,54.7,34.3,29.99,East,90,2.0,4.0,46,0.00,,,0.00,meteohub,2013-10-07 16:57:00,
2013-10-07 10:02:00,54.7,34.9,29.99,East,90,2.0,4.0,47,0.00,,,0.00,meteohub,2013-10-07 17:02:00,
2013-10-07 10:07:00,54.9,35.6,29.99,East,90,2.0,3.0,48,0.00,,,0.00,meteohub,2013-10-07 17:07:00,
2013-10-07 10:12:00,55.8,35.8,29.99,NNE,23,4.0,4.0,47,0.00,,,0.00,meteohub,2013-10-07 17:12:00,
2013-10-07 10:17:00,56.8,36.9,29.99,NW,315,2.0,4.0,47,0.00,,,0.00,meteohub,2013-10-07 17:17:00,
2013-10-07 10:22:00,58.3,37.0,29.99,North,0,5.0,5.0,45,0.00,,,0.00,meteohub,2013-10-07 17:22:00,
2013-10-07 10:27:00,58.8,38.1,29.99,NW,315,11.0,11.0,46,0.00,,,0.00,meteohub,2013-10-07 17:27:00,
2013-10-07 10:32:00,57.2,40.3,29.99,NNE,23,9.0,13.0,53,0.00,,,0.00,meteohub,2013-10-07 17:32:00,
2013-10-07 10:37:00,55.9,41.0,29.99,North,0,7.0,13.0,57,0.00,,,0.00,meteohub,2013-10-07 17:37:00,
2013-10-07 10:42:00,55.4,41.7,30.00,NW,315,9.0,13.0,60,0.00,,,0.00,meteohub,2013-10-07 17:42:00,
2013-10-07 10:47:00,55.6,42.8,30.00,SW,225,8.0,13.0,62,0.00,,,0.00,meteohub,2013-10-07 17:47:00,
2013-10-07 10:52:00,55.9,42.6,30.00,SW,225,8.0,11.0,61,0.00,,,0.00,meteohub,2013-10-07 17:52:00,
2013-10-07 10:57:00,55.9,42.3,30.00,NW,315,11.0,12.0,60,0.00,,,0.00,meteohub,2013-10-07 17:57:00,
2013-10-07 11:02:00,55.8,42.1,30.01,WNW,293,13.0,15.0,60,0.00,,,0.00,meteohub,2013-10-07 18:02:00,
2013-10-07 11:07:00,56.1,41.9,30.01,North,0,8.0,15.0,59,0.00,,,0.00,meteohub,2013-10-07 18:07:00,
2013-10-07 11:13:00,55.9,41.9,30.00,North,0,4.0,15.0,59,0.00,,,0.00,meteohub,2013-10-07 18:13:00,
2013-10-07 11:19:00,56.5,42.3,30.01,NW,315,8.0,13.0,59,0.00,,,0.00,meteohub,2013-10-07 18:19:00,
2013-10-07 11:25:00,56.8,42.3,30.01,NW,315,13.0,13.0,58,0.00,,,0.00,meteohub,2013-10-07 18:25:00,
2013-10-07 11:31:00,55.9,41.0,30.00,West,270,8.0,13.0,57,0.00,,,0.00,meteohub,2013-10-07 18:31:00,
2013-10-07 11:37:00,55.9,41.0,30.01,NW,315,9.0,13.0,57,0.00,,,0.00,meteohub,2013-10-07 18:37:00,
2013-10-07 11:42:00,55.8,40.8,30.00,North,0,13.0,13.0,57,0.00,,,0.00,meteohub,2013-10-07 18:42:00,
2013-10-07 11:47:00,55.0,40.5,30.01,NW,315,11.0,13.0,58,0.00,,,0.00,meteohub,2013-10-07 18:47:00,
2013-10-07 11:52:00,54.5,40.1,30.01,SW,225,9.0,13.0,58,0.00,,,0.00,meteohub,2013-10-07 18:52:00,
2013-10-07 11:57:00,54.3,40.3,30.01,NW,315,11.0,13.0,59,0.00,,,0.00,meteohub,2013-10-07 18:57:00,
2013-10-07 12:02:00,54.0,39.9,30.01,South,180,13.0,15.0,59,0.00,,,0.00,meteohub,2013-10-07 19:02:00,
2013-10-07 12:07:00,53.6,39.6,30.01,North,0,11.0,15.0,59,0.00,,,0.00,meteohub,2013-10-07 19:07:00,
2013-10-07 12:12:00,53.4,40.3,30.01,SW,225,4.0,15.0,61,0.00,,,0.00,meteohub,2013-10-07 19:12:00,
2013-10-07 12:17:00,54.0,40.8,30.01,North,0,4.0,13.0,61,0.00,,,0.00,meteohub,2013-10-07 19:17:00,
2013-10-07 12:22:00,54.1,41.0,30.01,SW,225,11.0,13.0,61,0.00,,,0.00,meteohub,2013-10-07 19:22:00,
2013-10-07 12:27:00,53.6,40.5,30.02,NW,315,4.0,15.0,61,0.00,,,0.00,meteohub,2013-10-07 19:27:00,
2013-10-07 12:32:00,53.8,40.3,30.02,NW,315,13.0,15.0,60,0.00,,,0.00,meteohub,2013-10-07 19:32:00,
2013-10-07 12:37:00,53.6,40.1,30.01,SE,135,11.0,15.0,60,0.00,,,0.00,meteohub,2013-10-07 19:37:00,
2013-10-07 12:42:00,54.3,40.3,30.01,North,0,11.0,13.0,59,0.00,,,0.00,meteohub,2013-10-07 19:42:00,
2013-10-07 12:47:00,54.1,39.7,30.01,NE,45,8.0,13.0,58,0.00,,,0.00,meteohub,2013-10-07 19:47:00,
2013-10-07 12:52:00,53.6,39.2,30.01,NW,315,15.0,15.0,58,0.00,,,0.00,meteohub,2013-10-07 19:52:00,
2013-10-07 12:57:00,53.4,39.4,30.01,NW,315,10.0,15.0,59,0.00,,,0.00,meteohub,2013-10-07 19:57:00,
2013-10-07 13:02:00,53.2,38.8,30.02,NW,315,13.0,15.0,58,0.00,,,0.00,meteohub,2013-10-07 20:02:00,
2013-10-07 13:07:00,53.1,39.2,30.02,North,0,6.0,15.0,59,0.00,,,0.00,meteohub,2013-10-07 20:07:00,
2013-10-07 13:12:00,52.9,39.0,30.01,South,180,8.0,14.0,59,0.00,,,0.00,meteohub,2013-10-07 20:12:00,
2013-10-07 13:17:00,52.9,39.0,30.01,NW,315,8.0,14.0,59,0.00,,,0.00,meteohub,2013-10-07 20:17:00,
2013-10-07 13:22:00,52.7,38.8,30.01,NE,45,8.0,12.0,59,0.00,,,0.00,meteohub,2013-10-07 20:22:00,
2013-10-07 13:27:00,52.5,38.7,30.01,South,180,5.0,11.0,59,0.00,,,0.00,meteohub,2013-10-07 20:27:00,
2013-10-07 13:32:00,52.5,39.0,30.01,South,180,8.0,13.0,60,0.00,,,0.00,meteohub,2013-10-07 20:32:00,
2013-10-07 13:37:00,52.7,39.2,30.01,South,180,6.0,13.0,60,0.00,,,0.00,meteohub,2013-10-07 20:37:00,
2013-10-07 13:42:00,53.2,39.2,30.02,NW,315,11.0,11.0,59,0.00,,,0.00,meteohub,2013-10-07 20:42:00,
2013-10-07 13:47:00,53.1,38.7,30.02,West,270,6.0,11.0,58,0.00,,,0.00,meteohub,2013-10-07 20:47:00,
2013-10-07 13:52:00,52.9,39.0,30.01,NW,315,8.0,19.0,59,0.00,,,0.00,meteohub,2013-10-07 20:52:00,
2013-10-07 13:57:00,52.3,38.5,30.02,NW,315,8.0,19.0,59,0.00,,,0.00,meteohub,2013-10-07 20:57:00,
2013-10-07 14:02:00,52.2,38.7,30.02,NW,315,15.0,19.0,60,0.00,,,0.00,meteohub,2013-10-07 21:02:00,
2013-10-07 14:07:00,52.2,38.7,30.02,ESE,113,8.0,15.0,60,0.00,,,0.00,meteohub,2013-10-07 21:07:00,
2013-10-07 14:12:00,52.0,39.0,30.03,South,180,4.0,15.0,61,0.00,,,0.00,meteohub,2013-10-07 21:12:00,
2013-10-07 14:17:00,52.3,39.7,30.02,SW,225,10.0,15.0,62,0.00,,,0.00,meteohub,2013-10-07 21:17:00,
2013-10-07 14:22:00,52.3,39.4,30.03,NW,315,12.0,13.0,61,0.00,,,0.00,meteohub,2013-10-07 21:22:00,
2013-10-07 14:27:00,52.9,39.7,30.03,NW,315,6.0,13.0,61,0.00,,,0.00,meteohub,2013-10-07 21:27:00,
2013-10-07 14:32:00,53.2,39.7,30.02,NE,45,5.0,13.0,60,0.00,,,0.00,meteohub,2013-10-07 21:32:00,
2013-10-07 14:37:00,53.6,38.3,30.02,North,0,10.0,12.0,56,0.00,,,0.00,meteohub,2013-10-07 21:37:00,
2013-10-07 14:42:00,53.8,37.9,30.02,WSW,248,7.0,12.0,55,0.00,,,0.00,meteohub,2013-10-07 21:42:00,
2013-10-07 14:47:00,54.1,37.4,30.03,West,270,8.0,12.0,53,0.00,,,0.00,meteohub,2013-10-07 21:47:00,
2013-10-07 14:52:00,54.1,36.9,30.02,South,180,7.0,13.0,52,0.00,,,0.00,meteohub,2013-10-07 21:52:00,
2013-10-07 14:57:00,54.3,37.0,30.03,North,0,3.0,13.0,52,0.00,,,0.00,meteohub,2013-10-07 21:57:00,
2013-10-07 15:02:00,54.9,37.6,30.03,ESE,113,8.0,13.0,52,0.00,,,0.00,meteohub,2013-10-07 22:02:00,
2013-10-07 15:07:00,54.9,37.0,30.03,SW,225,9.0,11.0,51,0.00,,,0.00,meteohub,2013-10-07 22:07:00,
2013-10-07 15:12:00,55.0,36.7,30.02,West,270,11.0,11.0,50,0.00,,,0.00,meteohub,2013-10-07 22:12:00,
2013-10-07 15:17:00,54.9,37.0,30.02,South,180,8.0,11.0,51,0.00,,,0.00,meteohub,2013-10-07 22:17:00,
2013-10-07 15:22:00,55.0,36.7,30.03,NNE,23,8.0,11.0,50,0.00,,,0.00,meteohub,2013-10-07 22:22:00,
2013-10-07 15:27:00,55.0,36.7,30.03,SW,225,6.0,11.0,50,0.00,,,0.00,meteohub,2013-10-07 22:27:00,
2013-10-07 15:32:00,55.0,37.2,30.04,NE,45,4.0,11.0,51,0.00,,,0.00,meteohub,2013-10-07 22:32:00,
2013-10-07 15:37:00,54.9,37.0,30.04,South,180,9.0,12.0,51,0.00,,,0.00,meteohub,2013-10-07 22:37:00,
2013-10-07 15:42:00,54.7,36.9,30.04,West,270,7.0,12.0,51,0.00,,,0.00,meteohub,2013-10-07 22:42:00,
2013-10-07 15:47:00,54.7,36.9,30.04,West,270,7.0,12.0,51,0.00,,,0.00,meteohub,2013-10-07 22:47:00,
2013-10-07 15:52:00,54.3,36.5,30.03,NE,45,5.0,12.0,51,0.00,,,0.00,meteohub,2013-10-07 22:52:00,
2013-10-07 15:57:00,54.1,36.9,30.03,NW,315,9.0,12.0,52,0.00,,,0.00,meteohub,2013-10-07 22:57:00,
2013-10-07 16:02:00,54.0,36.7,30.03,NE,45,7.0,15.0,52,0.00,,,0.00,meteohub,2013-10-07 23:02:00,
2013-10-07 16:07:00,54.3,37.6,30.03,NW,315,6.0,15.0,53,0.00,,,0.00,meteohub,2013-10-07 23:07:00,
2013-10-07 16:12:00,54.5,36.7,30.03,South,180,8.0,15.0,51,0.00,,,0.00,meteohub,2013-10-07 23:12:00,
2013-10-07 16:17:00,55.0,37.2,30.03,South,180,7.0,11.0,51,0.00,,,0.00,meteohub,2013-10-07 23:17:00,
2013-10-07 16:22:00,55.2,36.9,30.04,West,270,3.0,11.0,50,0.00,,,0.00,meteohub,2013-10-07 23:22:00,
2013-10-07 16:27:00,55.2,36.9,30.04,SW,225,7.0,11.0,50,0.00,,,0.00,meteohub,2013-10-07 23:27:00,
2013-10-07 16:32:00,55.0,37.2,30.04,NW,315,2.0,12.0,51,0.00,,,0.00,meteohub,2013-10-07 23:32:00,
2013-10-07 16:37:00,54.9,37.0,30.04,NW,315,7.0,12.0,51,0.00,,,0.00,meteohub,2013-10-07 23:37:00,
2013-10-07 16:42:00,54.5,37.8,30.03,NW,315,11.0,12.0,53,0.00,,,0.00,meteohub,2013-10-07 23:42:00,
2013-10-07 16:47:00,54.0,38.1,30.03,West,270,6.0,12.0,55,0.00,,,0.00,meteohub,2013-10-07 23:47:00,
2013-10-07 16:52:00,53.6,38.3,30.04,NW,315,9.0,13.0,56,0.00,,,0.00,meteohub,2013-10-07 23:52:00,
2013-10-07 16:57:00,53.2,38.8,30.04,NW,315,8.0,13.0,58,0.00,,,0.00,meteohub,2013-10-07 23:57:00,
2013-10-07 17:02:00,52.9,39.0,30.04,West,270,5.0,13.0,59,0.00,,,0.00,meteohub,2013-10-08 00:02:00,
2013-10-07 17:07:00,52.7,38.8,30.04,NW,315,3.0,11.0,59,0.00,,,0.00,meteohub,2013-10-08 00:07:00,
2013-10-07 17:12:00,52.5,39.0,30.04,SW,225,5.0,16.0,60,0.00,,,0.00,meteohub,2013-10-08 00:12:00,
2013-10-07 17:17:00,52.5,39.0,30.04,South,180,4.0,16.0,60,0.00,,,0.00,meteohub,2013-10-08 00:17:00,
2013-10-07 17:22:00,52.5,38.7,30.04,East,90,3.0,9.0,59,0.00,,,0.00,meteohub,2013-10-08 00:22:00,
2013-10-07 17:27:00,52.7,38.8,30.04,NW,315,6.0,9.0,59,0.00,,,0.00,meteohub,2013-10-08 00:27:00,
2013-10-07 17:32:00,52.3,38.5,30.03,NW,315,5.0,8.0,59,0.00,,,0.00,meteohub,2013-10-08 00:32:00,
2013-10-07 17:37:00,51.4,37.9,30.04,NE,45,4.0,11.0,60,0.00,,,0.00,meteohub,2013-10-08 00:37:00,
2013-10-07 17:42:00,50.9,37.9,30.04,WNW,293,3.0,11.0,61,0.00,,,0.00,meteohub,2013-10-08 00:42:00,
2013-10-07 17:47:00,50.5,37.6,30.04,NE,45,5.0,11.0,61,0.00,,,0.00,meteohub,2013-10-08 00:47:00,
2013-10-07 17:52:00,50.2,37.2,30.04,NNE,23,6.0,11.0,61,0.00,,,0.00,meteohub,2013-10-08 00:52:00,
2013-10-07 17:57:00,49.6,37.6,30.04,SW,225,4.0,11.0,63,0.00,,,0.00,meteohub,2013-10-08 00:57:00,
2013-10-07 18:02:00,49.5,37.4,30.04,SW,225,5.0,11.0,63,0.00,,,0.00,meteohub,2013-10-08 01:02:00,
2013-10-07 18:07:00,49.3,37.2,30.04,SW,225,4.0,8.0,63,0.00,,,0.00,meteohub,2013-10-08 01:07:00,
2013-10-07 18:12:00,49.1,37.0,30.04,SW,225,4.0,8.0,63,0.00,,,0.00,meteohub,2013-10-08 01:12:00,
2013-10-07 18:17:00,48.7,36.7,30.04,South,180,4.0,8.0,63,0.00,,,0.00,meteohub,2013-10-08 01:17:00,
2013-10-07 18:22:00,48.4,36.3,30.04,North,0,2.0,8.0,63,0.00,,,0.00,meteohub,2013-10-08 01:22:00,
2013-10-07 18:27:00,48.2,36.7,30.05,West,270,4.0,8.0,64,0.00,,,0.00,meteohub,2013-10-08 01:27:00,
2013-10-07 18:32:00,48.0,36.9,30.04,NW,315,2.0,4.0,65,0.00,,,0.00,meteohub,2013-10-08 01:32:00,
2013-10-07 18:37:00,47.8,37.0,30.05,NW,315,4.0,6.0,66,0.00,,,0.00,meteohub,2013-10-08 01:37:00,
2013-10-07 18:42:00,47.5,36.7,30.05,NW,315,2.0,6.0,66,0.00,,,0.00,meteohub,2013-10-08 01:42:00,
2013-10-07 18:47:00,47.3,36.5,30.05,NW,315,4.0,6.0,66,0.00,,,0.00,meteohub,2013-10-08 01:47:00,
2013-10-07 18:52:00,46.9,36.5,30.05,West,270,2.0,4.0,67,0.00,,,0.00,meteohub,2013-10-08 01:52:00,
2013-10-07 18:57:00,46.8,36.3,30.04,North,0,2.0,4.0,67,0.00,,,0.00,meteohub,2013-10-08 01:57:00,
2013-10-07 19:02:00,46.6,36.5,30.05,NW,315,4.0,4.0,68,0.00,,,0.00,meteohub,2013-10-08 02:02:00,
2013-10-07 19:07:00,46.6,37.4,30.05,SW,225,3.0,4.0,70,0.00,,,0.00,meteohub,2013-10-08 02:07:00,
2013-10-07 19:12:00,46.4,37.2,30.05,West,270,5.0,5.0,70,0.00,,,0.00,meteohub,2013-10-08 02:12:00,
2013-10-07 19:17:00,46.2,37.0,30.05,South,180,2.0,6.0,70,0.00,,,0.00,meteohub,2013-10-08 02:17:00,
2013-10-07 19:22:00,45.9,37.0,30.05,NW,315,4.0,6.0,71,0.00,,,0.00,meteohub,2013-10-08 02:22:00,
2013-10-07 19:27:00,45.7,37.2,30.05,SSW,203,2.0,7.0,72,0.00,,,0.00,meteohub,2013-10-08 02:27:00,
2013-10-07 19:32:00,45.5,37.0,30.05,South,180,2.0,7.0,72,0.00,,,0.00,meteohub,2013-10-08 02:32:00,
2013-10-07 19:37:00,45.3,36.9,30.04,SW,225,2.0,7.0,72,0.00,,,0.00,meteohub,2013-10-08 02:37:00,
2013-10-07 19:42:00,45.3,36.9,30.04,SSE,158,3.0,5.0,72,0.00,,,0.00,meteohub,2013-10-08 02:42:00,
2013-10-07 19:47:00,45.1,36.7,30.04,North,0,1.0,5.0,72,0.00,,,0.00,meteohub,2013-10-08 02:47:00,
2013-10-07 19:52:00,45.0,36.5,30.04,SW,225,2.0,5.0,72,0.00,,,0.00,meteohub,2013-10-08 02:52:00,
2013-10-07 19:57:00,44.8,36.3,30.04,East,90,1.0,3.0,72,0.00,,,0.00,meteohub,2013-10-08 02:57:00,
2013-10-07 20:02:00,44.8,36.3,30.03,NW,315,2.0,2.0,72,0.00,,,0.00,meteohub,2013-10-08 03:02:00,
2013-10-07 20:07:00,44.8,36.3,30.04,South,180,3.0,3.0,72,0.00,,,0.00,meteohub,2013-10-08 03:07:00,
2013-10-07 20:12:00,44.8,36.3,30.04,SW,225,6.0,6.0,72,0.00,,,0.00,meteohub,2013-10-08 03:12:00,
2013-10-07 20:17:00,44.8,36.7,30.04,South,180,5.0,6.0,73,0.00,,,0.00,meteohub,2013-10-08 03:17:00,
2013-10-07 20:22:00,44.8,36.7,30.04,SE,135,7.0,7.0,73,0.00,,,0.00,meteohub,2013-10-08 03:22:00,
2013-10-07 20:27:00,44.8,36.7,30.04,East,90,4.0,7.0,73,0.00,,,0.00,meteohub,2013-10-08 03:27:00,
2013-10-07 20:32:00,44.8,36.7,30.04,NW,315,4.0,7.0,73,0.00,,,0.00,meteohub,2013-10-08 03:32:00,
2013-10-07 20:37:00,44.8,36.3,30.04,North,0,3.0,7.0,72,0.00,,,0.00,meteohub,2013-10-08 03:37:00,
2013-10-07 20:42:00,44.8,36.3,30.04,West,270,6.0,6.0,72,0.00,,,0.00,meteohub,2013-10-08 03:42:00,
2013-10-07 20:47:00,44.8,36.3,30.04,SE,135,2.0,6.0,72,0.00,,,0.00,meteohub,2013-10-08 03:47:00,
2013-10-07 20:52:00,44.8,36.0,30.03,West,270,4.0,6.0,71,0.00,,,0.00,meteohub,2013-10-08 03:52:00,
2013-10-07 20:57:00,44.6,35.8,30.04,NW,315,7.0,7.0,71,0.00,,,0.00,meteohub,2013-10-08 03:57:00,
2013-10-07 21:02:00,44.8,36.0,30.04,NW,315,6.0,7.0,71,0.00,,,0.00,meteohub,2013-10-08 04:02:00,
2013-10-07 21:04:00,44.8,36.0,30.04,NW,315,4.0,7.0,71,0.00,,,0.00,meteohub,2013-10-08 04:04:00,
2013-10-07 21:07:00,44.6,35.8,30.04,WSW,248,3.0,7.0,71,0.00,,,0.00,meteohub,2013-10-08 04:07:00,
2013-10-07 21:10:00,44.6,35.8,30.04,NW,315,4.0,7.0,71,0.00,,,0.00,meteohub,2013-10-08 04:10:00,
2013-10-07 21:12:00,44.6,36.1,30.04,NW,315,2.0,7.0,72,0.00,,,0.00,meteohub,2013-10-08 04:12:00,
2013-10-07 21:17:00,44.2,36.1,30.05,East,90,2.0,6.0,73,0.00,,,0.00,meteohub,2013-10-08 04:17:00,
2013-10-07 21:22:00,43.9,35.8,30.05,North,0,2.0,6.0,73,0.00,,,0.00,meteohub,2013-10-08 04:22:00,
2013-10-07 21:27:00,43.7,35.6,30.05,East,90,1.0,4.0,73,0.00,,,0.00,meteohub,2013-10-08 04:27:00,
2013-10-07 21:32:00,43.3,35.2,30.05,West,270,2.0,2.0,73,0.00,,,0.00,meteohub,2013-10-08 04:32:00,
2013-10-07 21:37:00,43.3,35.6,30.05,North,0,3.0,3.0,74,0.00,,,0.00,meteohub,2013-10-08 04:37:00,
2013-10-07 21:42:00,43.5,36.1,30.05,North,0,2.0,5.0,75,0.00,,,0.00,meteohub,2013-10-08 04:42:00,
2013-10-07 21:47:00,43.7,36.3,30.05,SSW,203,6.0,6.0,75,0.00,,,0.00,meteohub,2013-10-08 04:47:00,
2013-10-07 21:52:00,44.2,36.9,30.05,NW,315,4.0,7.0,75,0.00,,,0.00,meteohub,2013-10-08 04:52:00,
2013-10-07 21:57:00,44.6,36.5,30.05,NW,315,3.0,7.0,73,0.00,,,0.00,meteohub,2013-10-08 04:57:00,
2013-10-07 22:02:00,44.6,36.5,30.05,West,270,3.0,7.0,73,0.00,,,0.00,meteohub,2013-10-08 05:02:00,
2013-10-07 22:07:00,44.4,36.7,30.05,NW,315,4.0,8.0,74,0.00,,,0.00,meteohub,2013-10-08 05:07:00,
2013-10-07 22:12:00,44.4,36.7,30.05,South,180,6.0,8.0,74,0.00,,,0.00,meteohub,2013-10-08 05:12:00,
2013-10-07 22:17:00,44.2,36.5,30.05,SE,135,4.0,8.0,74,0.00,,,0.00,meteohub,2013-10-08 05:17:00,
2013-10-07 22:22:00,44.2,36.5,30.05,SW,225,3.0,8.0,74,0.00,,,0.00,meteohub,2013-10-08 05:22:00,
2013-10-07 22:27:00,44.1,36.7,30.06,South,180,3.0,6.0,75,0.00,,,0.00,meteohub,2013-10-08 05:27:00,
2013-10-07 22:32:00,43.9,36.5,30.05,SW,225,4.0,6.0,75,0.00,,,0.00,meteohub,2013-10-08 05:32:00,
2013-10-07 22:37:00,43.9,36.5,30.05,NW,315,4.0,5.0,75,0.00,,,0.00,meteohub,2013-10-08 05:37:00,
2013-10-07 22:42:00,43.9,36.9,30.05,North,0,4.0,8.0,76,0.00,,,0.00,meteohub,2013-10-08 05:42:00,
2013-10-07 22:47:00,43.7,36.7,30.05,NW,315,2.0,8.0,76,0.00,,,0.00,meteohub,2013-10-08 05:47:00,
2013-10-07 22:52:00,43.5,36.1,30.05,South,180,1.0,8.0,75,0.00,,,0.00,meteohub,2013-10-08 05:52:00,
2013-10-07 22:57:00,43.2,35.8,30.06,South,180,0.0,4.0,75,0.00,,,0.00,meteohub,2013-10-08 05:57:00,
2013-10-07 23:02:00,42.8,35.4,30.06,East,90,0.0,2.0,75,0.00,,,0.00,meteohub,2013-10-08 06:02:00,
2013-10-07 23:07:00,42.4,35.8,30.05,SE,135,2.0,2.0,77,0.00,,,0.00,meteohub,2013-10-08 06:07:00,
2013-10-07 23:12:00,42.3,36.0,30.05,NW,315,4.0,4.0,78,0.00,,,0.00,meteohub,2013-10-08 06:12:00,
2013-10-07 23:17:00,42.3,36.1,30.05,NW,315,5.0,5.0,79,0.00,,,0.00,meteohub,2013-10-08 06:17:00,
2013-10-07 23:22:00,42.6,36.3,30.05,SSE,158,4.0,6.0,78,0.00,,,0.00,meteohub,2013-10-08 06:22:00,
2013-10-07 23:27:00,42.8,36.1,30.05,SW,225,4.0,9.0,77,0.00,,,0.00,meteohub,2013-10-08 06:27:00,
2013-10-07 23:32:00,42.6,36.0,30.05,West,270,11.0,11.0,77,0.00,,,0.00,meteohub,2013-10-08 06:32:00,
2013-10-07 23:37:00,42.8,35.4,30.05,SW,225,4.0,11.0,75,0.00,,,0.00,meteohub,2013-10-08 06:37:00,
2013-10-07 23:42:00,42.8,35.1,30.06,SW,225,3.0,11.0,74,0.00,,,0.00,meteohub,2013-10-08 06:42:00,
2013-10-07 23:47:00,42.6,35.2,30.05,NE,45,4.0,11.0,75,0.00,,,0.00,meteohub,2013-10-08 06:47:00,
2013-10-07 23:52:00,42.6,34.9,30.05,South,180,2.0,5.0,74,0.00,,,0.00,meteohub,2013-10-08 06:52:00,
2013-10-07 23:57:00,42.3,34.5,30.05,South,180,4.0,4.0,74,0.00,,,0.00,meteohub,2013-10-08 06:57:00,